Retour au catalogue

STARLINK-4567

ActifCommunicationsVLEO
NORAD 53970·PAYLOAD·🇺🇸 United States

Lancé Oct 5, 2022 depuis Vandenberg Space Force Base

Loading…

Prochains Passages (prochaines 24 heures)

TLE

FraisSource: CelesTrak SupGP

Époque: Sep 14, 2026, 21:32 UTC

1 53970C 22125G   26257.89770833  .00039646  00000+0  11342-2 0  2570
2 53970  53.1584  78.3665 0001214  80.0585 133.7272 15.35381335    14

Suivez STARLINK-4567 en temps réel avec AllMySat

Download on the App Store